www.pogodaiklimat.ru

Погода и климат >> Архив погоды >> Россия >> Магаданская область >> Кегали


ПОГОДА в Кегали

  • Прогноз погоды в Кегали
  • Монитор погоды в Кегали

АРХИВ ПОГОДЫ в Кегали

Время (UTC), дата Ветер
(напр.,м/с)
 
Видим.   Явления Облачность Т
(С)
Тd
(С)
f
(%)
Тe
(С)
Тes
(С)
Комфортность P
(гПа)
Po
(гПа)
Тmin
(С)
Tmax
(С)
R
(мм)
R24
(мм)
S
(см)
21 9.06 Ю 4 50 км 10/10 600 м
[Cb cap]
+8.2 +2.8 69 +5 +5 1021.0 975.9 +1.9
00 10.06 Ю 6
{10}
50 км 9/9 600 м
[Cb cap]
+10.2 +1.8 56 +7 +8 1020.8 976.0
03 10.06 Ю 4
{12}
50 км 8/8 600 м
[Cb cap]
+11.2 +3.0 57 +9 +11 1020.6 976.0
06 10.06 Ю 5
{10}
50 км 9/9 600 м
[Cb cap]
+12.0 +2.4 52 +10 +10 1019.1 974.7
09 10.06 Ю 4 50 км 8/8 1000 м
[Sc]
+10.6 +2.9 59 +8 +8 1020.7 976.0 +12.1
12 10.06 ЮВ 3 50 км 8/8 1000 м
[Sc]
+9.0 +3.2 67 +7 +7 1020.9 976.0
15 10.06 ЮВ 2 50 км 8/8 1000 м
[Sc]
+7.7 +3.9 77 +6 +6 1021.2 976.0
18 10.06 ЮВ 2 50 км 3/3 1000 м
[Sc]
+8.3 +4.3 76 +7 +7 1019.9 974.8
21 10.06 Ю 6 50 км 1/1 1000 м
[Sc]
+12.8 +3.1 52 +11 +13 1019.0 974.7 +6.1
00 11.06 Ю 5
{10}
50 км 3/3 1000 м
[Cu hum]
+16.4 +3.5 42 +16 +21 1018.4 974.7
03 11.06 Ю 5-10
{14}
50 км 3/3 1000 м
[Cu hum]
+18.7 -0.1 28 +18 +23 1015.5 972.2
06 11.06 Ю 6-10
{12}
50 км 6/3 1000 м
[Cu hum Ci fib]
+19.4 -0.6 26 +19 +20 1015.2 972.0
09 11.06 Ю 3
{11}
50 км 8/3 1000 м
[Cu hum Ci fib]
+16.6 -0.6 31 +16 +17 1015.6 972.0 +19.5
12 11.06 ЮВ 3 50 км 6/3 1000 м
[Sc Ci fib]
+10.2 +0.5 51 +9 +9 1018.0 973.3
15 11.06 штиль 0 50 км 4/3 1000 м
[Sc Ci fib]
+3.3 0.0 79 +2 +2 1019.1 973.3
18 11.06 Ю 1 50 км 8/0
[Ci fib]
+9.1 +1.5 59 +9 +9 1018.1 973.3
21 11.06 Ю 5 50 км 8/0
[Ci fib]
+14.0 -1.2 35 +13 +15 1016.6 972.5 +2.3
00 12.06 Ю 3 50 км 6/0
[Ci fib]
+18.6 -1.8 25 +19 +23 1015.3 972.0
03 12.06 ЮЗ 5
{10}
50 км 3/0
[Ci fib]
+21.0 -5.8 16 +20 +25 1012.1 969.3
06 12.06 Ю 7-10
{11}
50 км 8/0
[Ci fib]
+20.6 -3.2 20 +20 +20 1012.2 969.3
09 12.06 Ю 4
{10}
50 км 9/0
[Ci fib]
+18.8 -2.8 23 +19 +19 1012.5 969.3 +21.5
12 12.06 ЮВ 1 50 км 8/0
[Ci fib]
+10.6 -2.8 39 +11 +11 1013.7 969.3
15 12.06 ЮВ 2 50 км 8/3 1000 м
[Sc Ci fib]
+3.6 -1.6 69 +1 +1 1016.3 970.7
18 12.06 Ю 2 50 км 9/5 1000 м
[Sc Ci fib]
+7.2 +1.5 67 +5 +5 1015.7 970.7
21 12.06 Ю 4 50 км 6/1 1000 м
[Sc Ci fib]
+15.3 +2.2 41 +14 +18 1013.8 970.1 +1.4
00 13.06 Ю 4 50 км 8/0
[Ci fib]
+19.2 -3.7 21 +19 +21 1013.9 970.7
03 13.06 Ю 5 50 км 10/0
[Cs]
+21.4 -8.2 13 +20 +20 1012.1 969.3
06 13.06 Ю 4 50 км 10/0
[Cs]
+20.9 -6.7 15 +20 +20 1010.8 968.0
09 13.06 Ю 2 50 км 8/0
[Ci fib]
+18.7 -2.9 23 +19 +19 1012.5 969.3 +21.7
12 13.06 Ю 1 50 км 4/0
[Ci fib]
+10.0 -1.4 45 +10 +10 1013.8 969.3
15 13.06 ЮВ 3 50 км 3/0
[Ci fib]
+2.3 -1.3 77 -2 -2 1016.5 970.7
18 13.06 ЮВ 1 50 км 3/0
[Ci fib]
+5.8 -0.3 65 +5 +6 1016.0 970.7
21 13.06 ЮВ 2 50 км ясно +15.0 +2.3 42 +15 +21 1013.3 969.6 +1.3
00 14.06 СЗ 1 50 км ясно +20.9 +1.7 28 +22 +36 комфорт 1012.1 969.3
03 14.06 ЮЗ 3 50 км 1/1 1000 м
[Cu hum]
+23.2 -2.4 18 +22 +30 комфорт 1010.4 968.0
06 14.06 Ю 3 50 км 1/1 1000 м
[Cu hum]
+23.8 -3.5 16 +22 +26 комфорт 1010.4 968.0
09 14.06 Ю 2 50 км 4/0
[Ci fib]
+22.2 -3.3 18 +21 +21 комфорт 1010.6 968.0 +24.1
12 14.06 Ю 2 50 км 4/0
[Ci fib]
+10.8 +2.1 55 +10 +10 1013.7 969.3
15 14.06 ЮВ 3 50 км 4/3 1000 м
[Sc Ci fib]
+4.5 +0.5 75 +1 +1 1016.2 970.7
18 14.06 ЮВ 1 50 км 8/8 600 м
[Cb cap]
+8.3 +1.9 64 +8 +8 1016.9 972.0
21 14.06 Ю 3 50 км 6/6 600 м
[Cb cap]
+16.8 +2.7 39 +17 +19 1015.5 971.9 +2.3
00 15.06 В 2 50 км 3/3 1000 м
[Sc]
+23.2 +0.9 23 +22 +32 комфорт 1014.6 972.0
03 15.06 Ю 4 50 км 8/8 600 м
[Cb cap Ci fib]
+25.0 -0.2 19 +23 +26 комфорт 1014.3 972.0
06 15.06 ЮВ 4
{10}
50 км 8/5 600 м
[Cb cap Ci fib]
+22.2 +1.2 25 +22 +23 комфорт 1014.7 972.0
09 15.06 Ю 2
{10}
50 км 8/4 1000 м
[Sc Ci fib]
+20.5 +1.8 29 +21 +22 комфорт 1016.3 973.3 +25.4
12 15.06 ЮВ 2 50 км 6/4 1000 м
[Sc Ci fib]
+14.9 +1.4 40 +15 +15 1018.7 974.7
15 15.06 ЮВ 2 50 км 3/3 1000 м
[Sc]
+5.8 +1.0 71 +4 +4 1021.5 976.0
18 15.06 ЮВ 1 50 км 8/0
[Ci fib]
+7.7 +3.0 72 +7 +7 1021.2 976.0
21 15.06 ЮЗ 2 50 км 3/0
[Ci fib]
+15.2 +3.7 46 +15 +21 1019.2 975.2 +3.1
00 16.06 ЮЗ 5 50 км 6 баллов +21.4 +1.6 27 +21 +24 комфорт 1017.7 974.7
03 16.06 Ю 3 50 км 9 баллов +22.3 -0.5 22 +21 +22 комфорт 1016.1 973.3
06 16.06 Ю 4 50 км 6 баллов +22.8 -1.3 20 +22 +23 комфорт 1016.0 973.3
09 16.06 Ю 3 50 км 4/1 1000 м
[Sc Ci fib]
+21.1 +0.3 25 +21 +21 комфорт 1014.9 972.0 +23.4
12 16.06 Ю 2 50 км 4 балла +10.0 +2.8 61 +9 +9 1018.0 973.3
15 16.06 ЮВ 3 50 км 1 балл +4.1 +0.4 77 +1 +1 1019.0 973.3

 

Местоположение метеостанции Кегали (Магаданская область, Россия): широта 64.25 долгота 161.00 высота над уровнем моря 374 м.

В архиве по умолчанию представлена погода в Кегали за последнюю неделю. Архивные данные за месяц целиком и за предыдущие месяцы, начиная с января 2011 года, Вы можете получить, выбрав интересующий диапазон дат из раскрывающегося списка и нажав кнопку "Ввод!".


*Определитесь, кто Вы:
робот инопланетянин человек

Внимание! Время в таблицах - всемирное. Для получения местного времени необходимо прибавить поправку, которая равна 11 ч.

Смотрите также архив погоды в соседних городах и на ближайших метеорологических станциях:

Погода в Омолоне (Чукотка, Россия) (112 км)
Погода в Верхне-Пенжино (Камчатский край, Россия) (155 км)
Погода в Лабазной (Магаданская область, Россия) (162 км)
Погода в Эвенске (Магаданская область, Россия) (275 км)
Погода в Баимке (Чукотка, Россия) (294 км)
Погода в Омсукчане (Магаданская область, Россия) (323 км)
Погода в Каменском (Камчатский край, Россия) (325 км)
Погода в Балыгычане (Магаданская область, Россия) (337 км)
Погода в Коркодоне (Магаданская область, Россия) (344 км)
Погода в Слаутном (Камчатский край, Россия) (354 км)

Пояснения к столбцам:

Ветер - указаны скорость ветра в м/с - средняя за 10 мин, порывы в срок и между сроками (в фигурных скобках) и направление, откуда дует ветер: С - северный, СВ - северо-восточный, В - восточный, ЮВ - юго-восточный, Ю - южный, ЮЗ - юго-западный, З - западный, СЗ - северо-западный.
Видимость - горизонтальная дальность видимости в метрах или километрах. При видимости от 1 до 10 км при отсутствии осадков обычно наблюдается дымка, при ухудшении видимости до 1 км и менее - туман. В сухую погоду видимость может ухудшаться дымом, пылью или мглою.
Явления - указаны атмосферные явления, наблюдавшиеся в срок или в последний час перед сроком; фигурными скобками обозначены явления, наблюдавшиеся между сроками (за 1-3 часа до срока); квадратными скобками обозначены град или гололедные отложения с указанием их диаметра в мм.
Облачность - указаны через наклонную черту общая и нижняя облачность в баллах и высота нижней границы облаков в метрах; квадратными скобками обозначены формы облаков: Ci - перистые, Cs - перисто-слоистые, Cc - перисто-кучевые, Ac - высококучевые, As - высокослоистые, Sc - слоисто-кучевые, Ns - слоисто-дождевые, Cu - кучевые, Cb - кучево-дождевые. Подробнее классификацию облаков см. в Атласе облаков (PDF).
T - Температура воздуха - температура, измеренная на высоте 2 м над землей.
Td - Температура точки росы - температура, при понижении до которой содержащийся в воздухе водяной пар достигнет насыщения.
f - Относительная влажность воздуха - влажноcть воздуха, измеренная на высоте 2 м над землей.
Te - Эффективная температура - температура, которую ощущает одетый по сезону человек в тени. Характеристика душности погоды. При расчете учитывается влияние влажности воздуха и скорости ветра на теплоощущения человека.
Tes - Эффективная температура на солнце - температура, которую ощущает человек, с поправкой на солнечный нагрев. Характеристика знойности погоды. Зависит от высоты солнца над горизонтом, облачности и скорости ветра. Ночью, в пасмурную погоду, а также при ветре 12 м/с и более поправка равна нулю.
P - Атмосферное давление - приведенное к уровню моря атмосферное давление.
Po - Атмосферное давление - измеренное на уровне метеостанции атмосферное давление.
Tmin - Минимальная температура - минимум температуры воздуха на высоте 2 м над землей.
Tmax - Максимальная температура - максимум температуры воздуха на высоте 2 м над землей.
R - Количество осадков - Количество выпавших осадков за период времени, мм. При наведении курсора мыши на число - период времени, за который выпало указанное количество осадков.
R24 - Количество осадков - Количество выпавших осадков за 24 часа, мм.
S - Снежный покров - Высота снежного покрова, см. При наведении курсора мыши на число - состояние снежного покрова и степень покрытия местности в баллах.